Flag for Pakistan Weather past 2 weeks in Narowal, Pakistan

82 °F


Feels Like: 89 °F
Forecast: 74 / 89 °F
Wind: No wind

Location: Amritsar Airport

Current Time: Oct 13, 2015 at 6:44:48 PM

Latest Report: Oct 13, 2015 at 6:00 PM

Visibility: 2 mi

Pressure: 29.86 "Hg

Humidity: 79%

Dew point: 75 °F

Location of NarowalLocation

Historic Weather in Narowal — Graph


Narowal temperature yesterday

Maximum temperature yesterday: 93 °F (at 2:00 PM)
Minimum temperature yesterday: 72 °F (at 5:30 AM)
Average temperature yesterday: 82 °F

Past Weeks' High & Low Weather Summary

High93 °F (Oct 3, 3:00 PM)100% (Sep 29, 2:30 AM)29.98 "Hg (Sep 29, 2:30 AM)
Low64 °F (Sep 30, 6:00 AM)38% (Oct 8, 3:00 PM)29.62 "Hg (Oct 9, 3:30 PM)
Average80 °F74%29.84 "Hg
* Reported Sep 28 5:00 PM — Oct 13 5:00 PM, Narowal, Weather by CustomWeather, © 2015

Note: Actual official high and low records may vary slightly from our data, if they occured in-between our weather recording intervals... More about our weather records


Narowal weather history for previous 24 hours

Time TempWeatherWind HumidityBarometerVisibility
5:00 PM
Tue, Oct 13
88 °FHaze.No wind62%29.86 "Hg2 mi
4:30 PM90 °FHaze.No wind59%29.86 "Hg2 mi
4:00 PM90 °FHaze.No wind55%29.86 "Hg2 mi
2:30 PM90 °FScattered clouds.No wind55%29.89 "Hg2 mi
2:00 PM90 °FScattered clouds.2 mph55%29.89 "Hg2 mi
1:30 PM91 °FScattered clouds.5 mph56%29.89 "Hg2 mi
1:00 PM90 °FScattered clouds.2 mph59%29.89 "Hg2 mi
12:30 PM90 °FHaze.2 mph63%29.92 "Hg2 mi
12:00 PM90 °FHaze.6 mph59%29.92 "Hg2 mi
11:30 AM88 °FHaze.3 mph66%29.92 "Hg2 mi
11:00 AM86 °FHaze.6 mph70%29.92 "Hg2 mi
10:00 AM86 °FHaze.5 mph70%29.95 "Hg1 mi
9:30 AM82 °FFog.5 mph79%29.95 "Hg1 mi
8:30 AM79 °FFog.1 mph94%29.92 "Hg1 mi
8:00 AM77 °FFog.No wind94%29.92 "Hg1 mi
7:30 AM75 °FFog.No wind100%29.92 "Hg1 mi
7:00 AM73 °FFog.No wind100%29.89 "Hg1 mi
6:30 AM73 °FFog.No wind100%29.89 "Hg1 mi
6:00 AM73 °FFog.No wind100%29.89 "Hg1 mi
5:30 AM73 °FFog.No wind100%29.86 "Hg1 mi
5:00 AM73 °FFog.No wind100%29.86 "Hg1 mi
4:30 AM73 °FFog.No wind100%29.86 "Hg1 mi
4:00 AM73 °FFog.No wind100%29.86 "Hg1 mi
3:30 AM73 °FFog.No wind100%29.86 "Hg1 mi
3:00 AM75 °FFog.No wind94%29.86 "Hg1 mi
2:30 AM75 °FFog.No wind94%29.86 "Hg1 mi
2:00 AM75 °FFog.No wind94%29.86 "Hg1 mi
1:30 AM75 °FFog.No wind94%29.86 "Hg1 mi
1:00 AM75 °FFog.No wind94%29.86 "Hg1 mi
12:30 AM75 °FFog.No wind94%29.86 "Hg1 mi
12:00 AM77 °FFog.No wind89%29.86 "Hg1 mi
11:00 PM
Mon, Oct 12
77 °FFog.No wind89%29.89 "Hg1 mi
10:30 PM79 °FFog.No wind89%29.89 "Hg1 mi
10:00 PM77 °FFog.No wind94%29.86 "Hg2 mi
9:30 PM77 °FFog.No wind94%29.86 "Hg2 mi
9:00 PM79 °FFog.No wind89%29.86 "Hg2 mi
8:30 PM79 °FFog.No wind89%29.86 "Hg2 mi
8:00 PM81 °FFog.No wind84%29.86 "Hg2 mi
7:30 PM81 °FFog.No wind84%29.86 "Hg2 mi
7:00 PM81 °FFog.No wind89%29.83 "Hg2 mi
6:30 PM81 °FFog.No wind89%29.83 "Hg2 mi
Weather by CustomWeather, © 2015

See weather overviewHow to use our weather pages